If you wish to contribute or participate in the discussions about articles you are invited to join SKYbrary as a registered user

 Actions

Albany Airport (Australia)

From SKYbrary Wiki

YABA
Airport
ICAO: YABA – IATA: ALH
Summary
Name Albany Airport (Australia)
Region Asia and Pacific
Territory Australia AU.gif
Location Drome, Western Australia
Serving Albany
Elevation 71.018 m
233 ft
233 ft71.018 m
Type medium airport
Coordinates 34° 56' 35.88" S, 117° 48' 32.40" E
Runways
Designator Length Width Surface ROPS
5/23 1096 m3,595.801 ft
30 m98.425 ft
GVL /
14/32 1800 m5,905.512 ft
30 m98.425 ft
ASP /


METAR
Observation YABA 192100Z AUTO 31014KT 9999 // NCD 14/09 Q1009
Station Albany Aerodrome
Date/Time 19 May 2019 21:00:00
Wind direction 310°
Wind speed 14 kts
Lowest cloud amount no clouds detected
Temperature 14°C
Dew point 9°C
Humidity 71%
QNH 1009 hPa
Weather condition n/a

Maps

Terrain

Loading map...

Airport Layout

Loading map...


Accidents & Serious Incidents at or in vicinity of YABA

None on SKYbrary